De Queen, AR

4:51 AM CDT on April 24, 2018 (GMT -0500)
Helms Sevier County

Weather History for KDEQ - January, 2013

Change the Weather History Date:

Sunday, January 6, 2013

  Actual Average Record
Temperature  
Mean Temperature 41 °F 42 °F  
Max Temperature 59 °F 53 °F 77 °F (2008)
Min Temperature 22 °F 30 °F 10 °F (2014)
Degree Days  
Heating Degree Days 24 23  
Month to date heating degree days 161 138  
Since 1 July heating degree days 1286 1347  
Cooling Degree Days 0 0  
Month to date cooling degree days 0 0  
Year to date cooling degree days 0 0  
Moisture  
Dew Point 25 °F    
Average Humidity 62    
Maximum Humidity 100    
Minimum Humidity 23    
Precipitation  
Precipitation 0.00 in 0.12 in 1.05 in (1960)
Month to date precipitation T 0.68  
Year to date precipitation T 0.68  
Snow  
Snow 0.00 in - - ()
Month to date snowfall 0.0  
Since 1 July snowfall 4.5  
Snow Depth 0.00 in    
Sea Level Pressure  
Sea Level Pressure 30.31 in    
Wind  
Wind Speed 2 mph (NNW)    
Max Wind Speed 13 mph    
Max Gust Speed 17 mph    
Visibility 4 miles    
Events Fog    
T = Trace of Precipitation, MM = Missing Value Source: NWS Daily Summary

Daily Weather History Graph

Daily Weather History Graph

Search for Another Location

Airport or City:

Astronomy

Jan. 06, 2013 Rise Set
Actual Time 7:23 AM CST 5:23 PM CST
Civil Twilight 6:56 AM CST 5:51 PM CST
Nautical Twilight 6:25 AM CST 6:22 PM CST
Astronomical Twilight 5:54 AM CST 6:52 PM CST
Moon 1:45 AM CST (1/6) 12:46 PM CST (1/6)
Length of Visible Light 10h 54m
Length of Day
9h 59m
Waning Crescent, 33% of the Moon is Illuminated
Jan 6
Waning Crescent
Jan 11
New
Jan 18
First Quarter
Jan 26
Full
Feb 3
Last Quarter

Hourly Weather History & Observations

Time (CST) Temp. Windchill Dew Point Humidity Pressure Visibility Wind Dir Wind Speed Gust Speed Precip Events Conditions
12:36 AM 30.0 °F - 28.0 °F 92% 30.28 in 1.0 mi Calm Calm - N/A   Mist
12:51 AM 28.4 °F - 26.6 °F 93% 30.28 in 0.2 mi Calm Calm - N/A Fog Light Freezing Fog
12:53 AM 27.0 °F - 27.0 °F 100% 30.28 in 0.2 mi Calm Calm - N/A Fog Light Freezing Fog
1:07 AM 28.0 °F - 27.0 °F 96% 30.28 in 0.8 mi Calm Calm - N/A   Mist
1:14 AM 28.9 °F - 27.0 °F 92% 30.29 in 1.5 mi Calm Calm - N/A   Overcast
1:39 AM 28.0 °F - 27.0 °F 96% 30.29 in 0.8 mi Calm Calm - N/A   Mist
1:48 AM 28.4 °F - 26.6 °F 93% 30.29 in 0.2 mi Calm Calm - N/A Fog Light Freezing Fog
1:53 AM 28.0 °F - 27.0 °F 96% 30.30 in 0.2 mi Calm Calm - N/A Fog Light Freezing Fog
2:13 AM 28.0 °F - 27.0 °F 96% 30.30 in 0.5 mi Calm Calm - N/A Fog Light Freezing Fog
2:22 AM 27.0 °F - 26.1 °F 96% 30.30 in 0.2 mi Calm Calm - N/A Fog Light Freezing Fog
2:41 AM 27.0 °F - 25.0 °F 92% 30.30 in 1.0 mi Calm Calm - N/A   Mist
2:51 AM 26.6 °F - 24.8 °F 93% 30.30 in 0.2 mi Calm Calm - N/A Fog Light Freezing Fog
2:53 AM 27.0 °F - 25.0 °F 92% 30.30 in 0.2 mi Calm Calm - N/A Fog Light Freezing Fog
3:03 AM 27.0 °F - 25.0 °F 92% 30.30 in 0.5 mi Calm Calm - N/A Fog Light Freezing Fog
3:17 AM 27.0 °F - 25.0 °F 92% 30.30 in 3.0 mi Calm Calm - N/A   Clear
3:25 AM 26.1 °F - 25.0 °F 96% 30.30 in 1.5 mi Calm Calm - N/A   Clear
3:33 AM 26.1 °F - 25.0 °F 96% 30.30 in 0.2 mi Calm Calm - N/A Fog Light Freezing Fog
3:43 AM 26.1 °F - 25.0 °F 96% 30.29 in 1.0 mi Calm Calm - N/A   Clear
3:50 AM 26.6 °F - 24.8 °F 93% 30.29 in 3.0 mi Calm Calm - N/A   Clear
4:53 AM 26.1 °F - 24.1 °F 92% 30.29 in 5.0 mi Calm Calm - N/A   Clear
5:53 AM 25.0 °F - 23.0 °F 92% 30.29 in 4.0 mi Calm Calm - N/A   Clear
6:53 AM 24.1 °F - 21.9 °F 91% 30.30 in 5.0 mi Calm Calm - N/A   Clear
7:53 AM 25.0 °F - 24.1 °F 96% 30.32 in 3.0 mi Calm Calm - N/A   Clear
8:01 AM 26.1 °F - 25.0 °F 96% 30.32 in 2.5 mi Calm Calm - N/A   Clear
8:53 AM 28.9 °F - 28.9 °F 100% 30.34 in 5.0 mi Calm Calm - N/A   Clear
10:53 AM 45.0 °F 43.5 °F 35.1 °F 68% 30.34 in 10.0 mi Variable 3.5 mph - N/A   Clear
11:53 AM 51.1 °F - 32.0 °F 48% 30.32 in 10.0 mi Calm Calm - N/A   Clear
12:53 PM 55.0 °F - 25.0 °F 31% 30.30 in 10.0 mi NW 8.1 mph - N/A   Clear
1:53 PM 57.9 °F - 21.0 °F 24% 30.28 in 10.0 mi NNW 8.1 mph - N/A   Clear
2:53 PM 57.9 °F - 19.9 °F 23% 30.28 in 10.0 mi NW 9.2 mph 17.3 mph N/A   Clear
3:53 PM 57.9 °F - 19.9 °F 23% 30.29 in 10.0 mi NNW 8.1 mph - N/A   Clear
4:53 PM 54.0 °F - 21.0 °F 28% 30.30 in 10.0 mi NNE 5.8 mph - N/A   Clear
5:53 PM 46.0 °F 43.9 °F 21.9 °F 39% 30.31 in 10.0 mi NNE 4.6 mph - N/A   Clear
6:53 PM 42.1 °F - 24.1 °F 49% 30.32 in 10.0 mi Calm Calm - N/A   Clear
8:53 PM 30.9 °F - 25.0 °F 79% 30.35 in 10.0 mi Calm Calm - N/A   Clear
9:53 PM 28.9 °F - 24.1 °F 82% 30.35 in 10.0 mi Calm Calm - N/A   Clear
10:53 PM 28.0 °F - 25.0 °F 88% 30.36 in 10.0 mi Calm Calm - N/A   Clear
11:53 PM 25.0 °F - 23.0 °F 92% 30.36 in 10.0 mi Calm Calm - N/A   Clear